EW8956 Weather Reports


time (UTC)temp
F
wind
direction
speed
knots
gust
knots
rain 1hr
in
rain 24hr
in
rain mn
in
humidity
%
barometer
mb
20260906003053 76 0 0.0 0.0 0.00 0.04 0.04 79 1012.3
20260906001552 76 0 0.0 0.0 0.00 0.04 0.04 77 1012.2
20260906000100 77 0 0.0 0.0 0.00 0.04 0.04 75 1012.0
20260905234555 78 0 0.0 0.0 0.00 0.04 0.04 74 1011.8
20260905233051 79 0 0.0 0.0 0.00 0.04 0.04 72 1011.6
20260905231549 79 0 0.0 0.0 0.00 0.04 0.04 72 1011.4
20260905230055 79 0 0.0 0.0 0.00 0.04 0.04 73 1011.5
20260905224554 79 0 0.0 2.6 0.00 0.04 0.04 74 1011.6
20260905223049 79 0 0.0 0.9 0.00 0.04 0.04 74 1011.7
20260905221556 78 0 0.0 0.0 0.00 0.04 0.04 77 1011.7
20260905220054 78 0 0.0 0.0 0.00 0.04 0.04 78 1012.0
20260905214550 77 0 0.0 2.6 0.00 0.04 0.04 78 1012.2
20260905213047 78 201 0.0 3.5 0.00 0.04 0.04 79 1012.2
20260905211554 78 197 0.0 4.3 0.00 0.04 0.04 79 1012.3
20260905204550 78 0 0.0 3.5 0.00 0.04 0.04 78 1012.2
20260905203046 76 244 0.0 1.7 0.00 0.04 0.04 85 1011.7
20260905201555 75 0 0.0 1.7 0.00 0.04 0.04 85 1011.9
20260905200050 75 0 0.0 1.7 0.00 0.04 0.04 88 1012.3
20260905194549 75 0 0.9 2.6 0.02 0.04 0.04 87 1012.2
20260905193054 75 0 0.0 2.6 0.04 0.04 0.04 87 1012.1
20260905191557 76 0 0.0 3.5 0.04 0.04 0.04 83 1012.0
20260905190049 78 0 0.0 0.0 0.04 0.04 0.04 83 1012.1
20260905184623 82 0 0.0 7.0 0.02 0.02 0.02 71 1012.3
20260905183055 90 306 0.0 3.5 0.00 0.00 0.00 56 1011.6
20260905181558 92 0 0.0 2.6 0.00 0.00 0.00 54 1011.9
20260905180052 93 0 0.0 5.2 0.00 0.00 0.00 51 1012.4
20260905174623 94 306 0.0 3.5 0.00 0.00 0.00 52 1012.4
20260905173057 94 290 0.0 2.6 0.00 0.00 0.00 54 1012.6
20260905171550 93 0 0.0 2.6 0.00 0.00 0.00 53 1013.1
20260905170051 94 0 0.0 1.7 0.00 0.00 0.00 54 1013.4
20260905164557 92 0 0.0 2.6 0.00 0.00 0.00 54 1013.5
20260905163102 93 277 0.0 1.7 0.00 0.00 0.00 57 1013.7
20260905161551 92 0 0.0 0.9 0.00 0.00 0.00 56 1013.9
20260905160100 92 0 0.0 2.6 0.00 0.00 0.00 59 1014.0
20260905154614 92 0 0.0 3.5 0.00 0.00 0.00 58 1014.1
20260905153057 90 0 0.0 1.7 0.00 0.00 0.00 59 1014.2
20260905151552 90 0 0.0 3.5 0.00 0.00 0.00 61 1014.3
20260905150047 88 0 0.0 1.7 0.00 0.00 0.00 61 1014.4
20260905144554 88 0 0.0 1.7 0.00 0.00 0.00 64 1014.5
20260905143054 87 0 0.0 0.0 0.00 0.00 0.00 67 1014.3
20260905141550 85 0 0.0 2.6 0.00 0.00 0.00 72 1014.2
20260905134554 82 206 0.0 0.0 0.00 0.00 0.00 76 1014.2
20260905133052 80 0 0.0 4.3 0.00 0.00 0.00 79 1014.2
20260905131550 79 0 0.0 1.7 0.00 0.00 0.00 81 1014.3
20260905130052 78 0 0.0 3.5 0.00 0.00 0.00 83 1014.4
20260905124553 77 0 0.0 2.6 0.00 0.00 0.00 84 1014.6
20260905123059 75 0 0.0 2.6 0.00 0.00 0.00 87 1014.4
20260905121550 74 0 0.0 3.5 0.00 0.00 0.00 88 1014.6
20260905120050 73 0 0.0 0.0 0.00 0.00 0.00 90 1014.4
20260905114548 72 0 0.0 0.0 0.00 0.00 0.00 92 1014.2
20260905113056 71 0 0.0 0.0 0.00 0.00 0.00 92 1014.0
20260905111641 71 0 0.0 0.0 0.00 0.00 0.00 91 1013.9
20260905110051 71 0 0.0 0.0 0.00 0.00 0.00 91 1013.9
20260905104554 71 0 0.0 0.0 0.00 0.00 0.00 91 1013.7
20260905103056 71 0 0.0 0.0 0.00 0.00 0.00 91 1013.6
20260905101603 71 0 0.0 0.0 0.00 0.00 0.00 91 1013.6
20260905100053 72 0 0.0 0.0 0.00 0.00 0.00 91 1013.4
20260905094600 72 0 0.0 0.0 0.00 0.00 0.00 90 1013.5
20260905093102 72 0 0.0 0.0 0.00 0.00 0.00 89 1013.3
20260905091552 73 0 0.0 0.0 0.00 0.00 0.00 89 1013.4
20260905090053 73 0 0.0 0.0 0.00 0.00 0.00 88 1013.4
20260905084553 73 0 0.0 0.0 0.00 0.00 0.00 88 1013.4
20260905083045 73 0 0.0 0.0 0.00 0.00 0.00 88 1013.6
20260905081552 74 0 0.0 0.0 0.00 0.00 0.00 87 1013.9
20260905080100 74 0 0.0 0.0 0.00 0.00 0.00 87 1013.9
20260905074549 75 0 0.0 0.0 0.00 0.00 0.00 86 1014.0
20260905073058 75 0 0.0 0.0 0.00 0.00 0.00 83 1013.7
20260905071555 75 0 0.0 0.0 0.00 0.00 0.00 82 1013.7
20260905070055 75 0 0.0 0.0 0.00 0.00 0.00 83 1014.8
20260905064551 75 0 0.0 0.0 0.00 0.00 0.00 84 1014.9
20260905063059 75 0 0.0 0.0 0.00 0.00 0.00 84 1015.1
20260905061558 75 0 0.0 0.0 0.00 0.00 0.00 84 1015.0
20260905060059 75 0 0.0 0.0 0.00 0.00 0.00 83 1015.5
20260905054551 76 0 0.0 0.0 0.00 0.00 0.00 83 1015.8
20260905053111 76 0 0.0 0.0 0.00 0.00 0.00 82 1015.8
20260905051558 76 0 0.0 0.0 0.00 0.00 0.00 81 1015.9
20260905050056 76 0 0.0 0.0 0.00 0.00 0.00 81 1016.1
20260905044603 76 0 0.0 0.0 0.00 0.00 0.00 81 1016.3
20260905043102 76 0 0.0 0.0 0.00 0.00 0.00 80 1016.4
20260905041601 76 0 0.0 2.6 0.00 0.00 0.00 79 1016.2
20260905040058 76 98 0.0 2.6 0.00 0.00 0.00 80 1016.4
20260905034605 76 0 0.0 0.0 0.00 0.00 0.00 80 1016.2
20260905033115 76 0 0.0 0.0 0.00 0.00 0.00 78 1015.8
20260905031602 76 0 0.0 0.0 0.00 0.00 0.00 78 1015.7
20260905030105 76 0 0.0 0.0 0.00 0.00 0.00 76 1015.6
20260905024556 77 0 0.0 0.0 0.00 0.00 0.00 75 1015.6
20260905023111 77 0 0.0 0.0 0.00 0.00 0.00 75 1015.6
20260905021552 77 0 0.0 0.0 0.00 0.00 0.00 75 1015.7
20260905020052 77 0 0.0 0.0 0.00 0.00 0.00 75 1015.7
20260905014601 77 0 0.0 3.5 0.00 0.00 0.00 74 1015.3
20260905013057 77 0 0.0 1.7 0.00 0.00 0.00 74 1015.0
20260905011556 78 0 0.0 2.6 0.00 0.00 0.00 73 1015.0
20260905010105 78 0 0.0 0.0 0.00 0.00 0.00 73 1014.9
20260905004617 78 0 0.0 1.7 0.00 0.00 0.00 72 1015.1